FENGYUN 1C DEB, 32179

Orbit data source: Space-Track

FENGYUN 1C DEB, 32179 is space debris in SSO originally from a launch on Mon, 10 May 1999 UTC launched from the Taiyaun Space Center, China (TSC). Fengyun 1C debris stems from the Chinese weather satellite Fengyun-1C, which was intentionally destroyed by a Chinese anti-satellite missile in 2007. This event dramatically increased the amount of space debris, with thousands of trackable fragments posing hazards to satellites and human spaceflight. The Fengyun 1C debris cloud has become a focal point in discussions about space sustainability and the need for international regulations to prevent the creation of new debris.

Loading next visibility...
Identifier
32179, 1999-025CTZ
Orbit
SSO
Country
Flag of CNCN / PRC
Related business
Manufacturer
Unknown
Mission
Spacecraft
Bus & Motor
Unknown
Mass
Unknown
Launch date (UTC)
1999-05-10 (27 years ago)
Launch vehicle
Unknown
Launch site
Taiyaun Space Center, China (TSC)
Object type
Payload
Rocket body
Debris
Shape & HBR
Unknown shape, 0.1 m
Radar Cross Section
Small (<0.1 m²)

Expand to show TLE details & history
Last TLE update: 11 hours ago

TLE from 11 hours ago
0 FENGYUN 1C DEB
1 32179U 99025CTZ 26145.62953948 -.00000081  00000-0 -22767-4 0  9990
2 32179  98.8822 196.0115 0146501  93.0043  57.2288 14.03789653680271
Epoch: 2026-05-25T15:06Z
TLE epoch observation values (Epoch: 2026-05-25T15:06:32.211Z)
Latitude
28.01509°
Longitude
-89.09316°
Altitude
827.661 km
Speed
7.471 km/s
True Right ascension
01h 23m 01s
True Declination
27° 52' 27"
Sunlit
Object was in daylight at epoch
Visualization orbit readout
Latitude
Unknown
Longitude
Unknown
Altitude
Unknown
Speed
Unknown
Apparent Right ascension
Unknown
Apparent Declination
Unknown
Sunlit
N/A
Visualization observer readout
Local Sidereal Time
11:17:56
Azimuth
Unknown
Elevation
Unknown
Doppler factor
Unknown
Orbital elements
Apogee altitude
984.191 km
Perigee altitude
771.588 km
Semi-major axis
7,256.026 km
Eccentricity
0.01465
Inclination
98.8822°
RAAN
196.0115°
Arg. of periapsis
93.0043°
True anomaly
58.65436°
Mean anomaly
57.2288°
Eccentric anomaly
57.94018°
Mean motion
3.51152 °/min
Orbital period
102.52 mins
BSTAR
-0.000022767
Loading maneuver chart data...
Computing Atmospheric mass density...

Documentation

Showing up to 5 results
|